Date_and_time,latitude,longitude,wind_speed,RelWindDirFrom,WindDirFrom,air_pressure,air_temperature,relative_humidity,Temp,platform_speed_wrt_ground,air_pressure_at_mean_sea_level,platform_orientation
2019-04-17 23:40,50.6304483333333,-96.9807633333333,9.1,10.8,353,984.77,7.7,52,3.37,0.0,1011.89,360.0
2019-04-17 23:50,50.6304483333333,-96.980765,9.3,10.9,355,984.73,7.9,50,3.36,0.0,1011.82,360.0
2019-04-18 00:00,50.63046,-96.98079,9.6,11.3,352,984.66,8.0,50,3.34,0.0,1011.71,309.1
2019-04-18 00:10,50.6304483333333,-96.9807766666667,9.0,10.4,354,984.64,8.0,49,3.33,0.0,1011.68,309.1
2019-04-18 00:20,50.6304633333333,-96.9807883333333,8.9,10.5,355,984.62,8.1,49,3.33,0.0,1011.66,309.1
2019-04-18 00:30,50.63045,-96.9807766666667,9.1,9.9,357,984.57,7.9,48,3.33,0.0,1011.61,309.1
2019-04-18 00:40,50.6304466666667,-96.9807683333333,8.0,8.6,357,984.54,7.9,45,3.34,0.0,1011.56,309.1
2019-04-18 00:50,50.6304483333333,-96.9807683333333,7.8,8.7,355,984.51,7.6,47,3.34,0.0,1011.54,309.1
2019-04-18 01:00,50.63045,-96.9807583333333,8.0,9.1,354,984.47,7.1,50,3.34,0.0,1011.51,360.0
2019-04-18 01:10,50.6304466666667,-96.9807666666667,8.5,9.5,357,984.41,6.5,53,3.36,0.0,1011.49,360.0
2019-04-18 01:20,50.6304483333333,-96.9807683333333,8.8,9.6,355,984.40,6.1,53,3.37,0.0,1011.48,360.0
2019-04-18 01:30,50.6304483333333,-96.9807716666667,7.4,8.4,351,984.40,6.5,50,3.37,0.0,1011.46,360.0
2019-04-18 01:40,50.6304483333333,-96.9807716666667,7.7,8.5,354,984.46,6.6,52,3.37,0.0,1011.50,360.0
2019-04-18 01:50,50.63045,-96.9807716666667,8.3,9.2,353,984.46,6.5,53,3.35,0.0,1011.50,360.0
2019-04-18 02:00,50.6304483333333,-96.9807716666667,7.2,8.7,348,984.50,7.1,49,3.34,0.0,1011.51,270.0
2019-04-18 02:10,50.630435,-96.9807783333333,7.7,9.0,358,984.56,6.6,52,3.35,0.0,1011.60,270.0
2019-04-18 02:20,50.630435,-96.9807683333333,7.6,8.8,11,984.63,4.0,66,3.34,0.0,1011.80,270.0
2019-04-18 02:30,50.6304433333333,-96.9807683333333,7.6,8.8,13,984.70,1.8,77,3.32,0.0,1011.98,270.0
2019-04-18 02:40,50.630445,-96.9807683333333,6.6,7.1,9,984.79,1.3,82,3.33,0.0,1012.12,270.0
2019-04-18 02:50,50.63046,-96.9807766666667,6.3,6.8,5,984.81,1.5,83,3.34,0.0,1012.15,270.0
2019-04-18 03:00,50.6304466666667,-96.9807733333333,6.5,7.0,5,984.84,1.5,83,3.34,0.0,1012.21,130.6
2019-04-18 03:10,50.6304483333333,-96.98077,6.6,7.3,6,984.88,1.6,83,3.35,0.0,1012.27,130.6
2019-04-18 03:20,50.63045,-96.9807683333333,7.0,7.6,12,984.95,1.5,83,3.38,0.0,1012.33,130.6
2019-04-18 03:30,50.63045,-96.9807683333333,7.2,7.7,10,985.02,1.3,84,3.38,0.0,1012.41,130.6
2019-04-18 03:40,50.63045,-96.9807683333333,7.5,8.4,2,985.09,2.0,79,3.40,0.0,1012.44,130.6
2019-04-18 03:50,50.6304366666667,-96.98077,8.1,9.3,3,985.19,3.0,75,3.40,0.0,1012.46,130.6
2019-04-18 04:00,50.6304433333333,-96.9807783333333,7.2,8.1,21,985.24,2.7,78,3.40,0.0,1012.56,234.7
2019-04-18 04:10,50.6304983333333,-96.9808066666667,8.1,9.0,12,985.22,1.9,80,3.39,0.0,1012.70,234.7
2019-04-18 04:20,50.6304483333333,-96.9807816666667,7.5,8.3,11,985.31,1.7,83,3.20,0.0,1012.92,234.7
2019-04-18 04:30,50.63045,-96.98077,7.0,7.9,3,985.33,1.9,81,3.11,0.0,1012.96,234.7
2019-04-18 04:40,50.6304516666667,-96.98077,6.4,7.5,1,985.38,1.9,80,3.14,0.0,1013.00,234.7
2019-04-18 04:50,50.6304516666667,-96.9807683333333,6.7,7.6,2,985.38,1.9,79,3.18,0.0,1013.00,234.7
2019-04-18 05:00,50.6304516666667,-96.9807683333333,7.1,8.0,2,985.37,1.9,78,3.22,0.0,1012.99,12.6
2019-04-18 05:10,50.6304533333333,-96.9807683333333,7.6,8.6,2,985.38,2.1,77,3.25,0.0,1012.99,12.6
2019-04-18 05:20,50.630455,-96.9807683333333,7.4,8.2,3,985.42,2.2,76,3.20,0.0,1013.04,12.6
2019-04-18 05:30,50.6304566666667,-96.9807766666667,7.9,8.8,359,985.40,2.3,75,3.13,0.0,1012.97,12.6
2019-04-18 05:40,50.6304633333333,-96.9807783333333,7.6,8.6,357,985.38,2.5,72,3.15,0.0,1012.89,12.6
2019-04-18 05:50,50.63046,-96.980775,8.1,9.1,358,985.41,3.0,69,3.20,0.0,1012.92,12.6
2019-04-18 06:00,50.6304583333333,-96.9807733333333,8.1,9.1,1,985.41,2.9,69,3.26,0.0,1012.95,360.0
2019-04-18 06:10,50.6304566666667,-96.98077,8.0,9.1,358,985.41,3.0,68,3.31,0.0,1012.96,360.0
2019-04-18 06:20,50.6304566666667,-96.9807733333333,7.4,8.3,357,985.46,2.9,67,3.34,0.0,1013.01,360.0
2019-04-18 06:30,50.630455,-96.9807716666667,7.4,8.5,356,985.51,2.9,67,3.37,0.0,1013.06,360.0
2019-04-18 06:40,50.6304366666667,-96.9807833333333,7.4,8.8,354,985.53,3.0,66,3.40,0.0,1013.08,360.0
2019-04-18 06:50,50.63044,-96.9807616666667,7.3,9.1,353,985.62,3.0,66,3.42,0.0,1013.17,360.0
2019-04-18 07:00,50.6304516666667,-96.980755,7.4,8.5,353,985.66,2.9,67,3.42,0.0,1013.21,54.7
2019-04-18 07:10,50.6304466666667,-96.98077,8.0,9.6,355,985.61,3.0,67,3.42,0.0,1013.15,54.7
2019-04-18 07:20,50.6304416666667,-96.980765,8.0,9.2,353,985.62,2.9,67,3.42,0.0,1013.15,54.7
2019-04-18 07:30,50.63044,-96.980765,7.7,9.1,350,985.64,2.9,67,3.41,0.0,1013.16,54.7
2019-04-18 07:40,50.63044,-96.9807666666667,6.8,7.9,350,985.60,3.0,67,3.41,0.0,1013.10,54.7
2019-04-18 07:50,50.6304416666667,-96.9807683333333,6.7,8.3,350,985.58,3.1,66,3.41,0.0,1013.07,54.7
2019-04-18 08:00,50.6304433333333,-96.9807683333333,6.2,7.2,351,985.53,3.3,64,3.41,0.0,1013.01,360.0
2019-04-18 08:10,50.6304433333333,-96.98077,5.7,6.7,350,985.44,3.3,64,3.41,0.0,1012.92,360.0
2019-04-18 08:20,50.630445,-96.98077,5.9,6.9,346,985.36,3.2,64,3.41,0.0,1012.84,360.0
2019-04-18 08:30,50.6304466666667,-96.98077,5.4,6.4,342,985.37,3.0,65,3.40,0.0,1012.86,360.0
2019-04-18 08:40,50.6304466666667,-96.9807716666667,4.8,5.9,338,985.39,3.0,65,3.40,0.0,1012.88,360.0
2019-04-18 08:50,50.6304483333333,-96.9807716666667,4.5,5.9,339,985.44,3.0,64,3.40,0.0,1012.93,360.0
2019-04-18 09:00,50.6304433333333,-96.9807716666667,4.5,5.6,336,985.44,2.8,65,3.39,0.0,1012.94,360.0
2019-04-18 09:10,50.630445,-96.98078,5.1,5.9,334,985.45,2.7,65,3.38,0.0,1012.96,360.0
2019-04-18 09:20,50.6304483333333,-96.980775,4.9,5.8,337,985.46,2.6,66,3.37,0.0,1012.97,360.0
2019-04-18 09:30,50.630445,-96.9807733333333,4.8,5.8,344,985.48,2.5,66,3.37,0.0,1012.99,360.0
2019-04-18 09:40,50.6304483333333,-96.9807716666667,4.3,5.4,345,985.51,2.4,67,3.35,0.0,1013.02,360.0
2019-04-18 09:50,50.6304433333333,-96.9807516666667,4.4,5.9,343,985.54,2.4,66,3.34,0.0,1013.05,360.0
2019-04-18 10:00,50.6304433333333,-96.9807666666667,4.1,5.1,342,985.57,2.4,66,3.33,0.0,1013.07,360.0
2019-04-18 10:10,50.6304433333333,-96.9807633333333,3.2,4.5,333,985.59,2.4,66,3.31,0.0,1013.10,360.0
2019-04-18 10:20,50.630445,-96.9807633333333,2.6,3.5,310,985.66,2.1,68,3.30,0.0,1013.20,360.0
2019-04-18 10:30,50.6304466666667,-96.980765,2.6,3.6,287,985.69,1.4,71,3.30,0.0,1013.27,360.0
2019-04-18 10:40,50.630445,-96.9807633333333,3.1,4.0,288,985.74,0.7,74,3.30,0.0,1013.35,360.0
2019-04-18 10:50,50.630445,-96.980765,2.6,3.6,313,985.75,0.7,74,3.30,0.0,1013.37,360.0
2019-04-18 11:00,50.63046,-96.980765,2.3,3.4,286,985.81,0.6,75,3.30,0.0,1013.44,360.0
2019-04-18 11:10,50.63045,-96.980765,2.9,3.5,293,985.82,0.4,75,3.31,0.0,1013.47,360.0
2019-04-18 11:20,50.6304466666667,-96.9807666666667,2.4,3.7,303,985.88,0.3,76,3.31,0.0,1013.54,360.0
2019-04-18 11:30,50.6304466666667,-96.980765,2.7,3.9,300,986.02,0.3,76,3.31,0.0,1013.70,360.0
2019-04-18 11:40,50.6304466666667,-96.9807666666667,2.5,4.2,300,986.14,0.3,75,3.32,0.0,1013.81,360.0
2019-04-18 11:50,50.630445,-96.980765,2.2,3.7,295,986.31,0.3,76,3.33,0.0,1013.99,360.0
2019-04-18 12:00,50.630445,-96.980765,3.1,4.8,305,986.43,0.6,74,3.33,0.0,1014.10,90.0
2019-04-18 12:10,50.630445,-96.980765,3.2,4.8,303,986.64,1.1,72,3.33,0.0,1014.31,90.0
2019-04-18 12:20,50.6304433333333,-96.980765,3.7,5.9,302,986.82,1.3,70,3.33,0.0,1014.51,90.0
2019-04-18 12:30,50.6304433333333,-96.980765,3.9,5.7,304,986.88,1.6,69,3.33,0.0,1014.60,90.0
2019-04-18 12:40,50.6304433333333,-96.9807666666667,3.6,5.2,310,986.98,1.8,69,3.33,0.0,1014.68,90.0
2019-04-18 12:50,50.6304433333333,-96.9807666666667,3.9,4.8,312,987.11,2.1,68,3.32,0.0,1014.81,90.0
2019-04-18 13:00,50.6304433333333,-96.9807666666667,3.4,4.4,309,987.26,2.6,66,3.32,0.0,1014.95,0.0
2019-04-18 13:10,50.630445,-96.9807683333333,2.6,3.4,312,987.37,3.1,64,3.32,0.0,1015.04,0.0
2019-04-18 13:20,50.630445,-96.9807683333333,2.1,2.7,323,987.47,3.7,61,3.31,0.0,1015.12,0.0
2019-04-18 13:30,50.630445,-96.9807683333333,2.1,2.6,334,987.59,4.2,59,3.31,0.0,1015.21,0.0
2019-04-18 13:40,50.6304466666667,-96.9807683333333,1.4,2.0,351,987.68,4.4,59,3.32,0.0,1015.30,0.0
2019-04-18 13:50,50.6304466666667,-96.9807683333333,1.6,2.1,345,987.70,4.4,59,3.31,0.0,1015.30,0.0
2019-04-18 14:00,50.6304466666667,-96.98077,2.5,3.7,30,987.67,4.2,61,3.29,0.0,1015.25,360.0
2019-04-18 14:10,50.6304466666667,-96.98077,3.6,4.5,28,987.77,3.0,66,3.30,0.0,1015.41,360.0
2019-04-18 14:20,50.6304466666667,-96.98077,4.2,4.9,30,987.88,2.9,66,3.31,0.0,1015.51,360.0
2019-04-18 14:30,50.6304466666667,-96.98077,4.1,5.0,44,987.99,2.2,72,3.32,0.0,1015.65,360.0
2019-04-18 14:40,50.6304466666667,-96.98077,4.3,5.0,42,988.02,2.1,72,3.31,0.0,1015.68,360.0
2019-04-18 14:50,50.6304466666667,-96.9807716666667,4.3,5.3,25,988.04,1.9,74,3.33,0.0,1015.68,360.0
2019-04-18 15:00,50.6304616666667,-96.9808133333333,5.1,5.6,34,987.98,1.9,75,3.34,0.0,1015.59,308.2
2019-04-18 15:10,50.630455,-96.98077,5.5,6.4,32,987.95,1.9,76,3.35,0.0,1015.53,308.2
2019-04-18 15:20,50.6304533333333,-96.980775,6.1,6.5,39,988.01,1.9,79,3.36,0.0,1015.56,308.2
2019-04-18 15:30,50.6304516666667,-96.9807733333333,5.5,6.2,38,988.13,2.2,79,3.38,0.0,1015.67,308.2
2019-04-18 15:40,50.630435,-96.98076,4.6,5.1,40,988.27,2.4,79,3.38,0.0,1015.80,308.2
2019-04-18 15:50,50.63043,-96.9807633333333,4.3,4.8,35,988.31,2.5,78,3.38,0.0,1015.84,308.2
2019-04-18 16:00,50.6304366666667,-96.9807533333333,5.2,6.1,33,988.38,2.7,77,3.38,0.0,1015.97,119.2
2019-04-18 16:10,50.63044,-96.980765,4.6,5.6,46,988.53,2.9,77,3.38,0.0,1016.12,119.2
2019-04-18 16:20,50.63044,-96.980765,4.2,4.7,57,988.58,3.4,76,3.38,0.0,1016.18,119.2
2019-04-18 16:30,50.63044,-96.9807666666667,4.0,4.6,65,988.58,4.1,70,3.38,0.0,1016.15,119.2
2019-04-18 16:40,50.63044,-96.9807666666667,4.0,4.5,64,988.66,4.3,69,3.38,0.0,1016.23,119.2
2019-04-18 16:50,50.6304483333333,-96.9807633333333,4.0,4.8,62,988.69,3.7,74,3.37,0.0,1016.29,119.2
2019-04-18 17:00,50.63045,-96.980765,4.0,5.1,61,988.72,3.6,73,3.37,0.0,1016.33,360.0
2019-04-18 17:10,50.6304516666667,-96.9807716666667,3.3,4.3,60,988.74,3.6,73,3.36,0.0,1016.34,360.0
2019-04-18 17:20,50.6304516666667,-96.9807716666667,2.0,3.5,83,988.73,5.3,65,3.34,0.0,1016.24,360.0
2019-04-18 17:30,50.63045,-96.98077,3.9,5.1,62,988.74,5.6,66,3.36,0.0,1016.22,360.0
2019-04-18 17:40,50.6304483333333,-96.9807716666667,4.4,5.1,45,988.76,3.6,74,3.39,0.0,1016.34,360.0
2019-04-18 17:50,50.6304433333333,-96.980775,3.0,4.7,34,988.83,3.3,75,3.42,0.0,1016.41,360.0
2019-04-18 18:00,50.6304483333333,-96.9807716666667,2.7,4.3,49,988.95,3.8,71,3.44,0.0,1016.51,123.4
2019-04-18 18:10,50.6304466666667,-96.9807683333333,3.0,3.6,68,988.97,4.9,65,3.44,0.0,1016.44,123.4
2019-04-18 18:20,50.630445,-96.9807666666667,2.0,3.3,78,988.98,6.5,58,3.45,0.0,1016.34,123.4
2019-04-18 18:30,50.6304566666667,-96.9807933333333,4.5,5.9,69,988.91,5.7,64,3.51,0.0,1016.30,123.4
2019-04-18 18:40,50.6304466666667,-96.9807683333333,4.2,6.1,72,988.89,5.4,66,3.55,0.0,1016.32,123.4
2019-04-18 18:50,50.6304466666667,-96.9807633333333,3.9,5.9,76,988.88,5.3,65,3.55,0.0,1016.31,123.4
2019-04-18 19:00,50.630445,-96.980765,4.5,6.5,82,988.87,5.8,64,3.54,0.0,1016.28,299.2
2019-04-18 19:10,50.6304433333333,-96.9807666666667,4.2,7.1,104,988.88,5.7,66,3.56,0.0,1016.21,299.2
2019-04-18 19:20,50.6304433333333,-96.980765,4.6,6.4,118,988.84,5.7,66,3.56,0.0,1016.16,299.2
2019-04-18 19:30,50.6304433333333,-96.9807666666667,4.6,6.2,115,988.84,5.1,69,3.57,0.0,1016.28,299.2
2019-04-18 19:40,50.6304433333333,-96.9807683333333,5.6,7.6,111,988.83,5.6,65,3.56,0.0,1016.27,299.2
2019-04-18 19:50,50.6304433333333,-96.9807683333333,5.8,7.0,110,988.81,5.3,66,3.57,0.0,1016.23,299.2
2019-04-18 20:00,50.6304433333333,-96.9807666666667,3.2,5.3,104,988.75,6.4,62,3.59,0.0,1016.06,360.0
2019-04-18 20:10,50.6304433333333,-96.9807666666667,4.3,6.2,95,988.68,7.0,59,3.60,0.0,1015.88,360.0
